| time (UTC) | temp F | wind direction | speed MPH | gust MPH | rain 1hr in | rain 24hr in | rain mn in | humidity % | barometer mb |
| 20260505054002 | 59 | 272 | 2.0 | 5.0 | 0.00 | 0.00 | 0.00 | 68 | 1017.4 |
| 20260505053502 | 58 | 268 | 1.0 | 5.0 | 0.00 | 0.00 | 0.00 | 69 | 1017.3 |
| 20260505053002 | 58 | 268 | 1.0 | 5.0 | 0.00 | 0.00 | 0.00 | 70 | 1017.5 |
| 20260505052502 | 57 | 263 | 1.0 | 5.0 | 0.00 | 0.00 | 0.00 | 71 | 1017.5 |
| 20260505052002 | 56 | 259 | 0.0 | 4.0 | 0.00 | 0.00 | 0.00 | 71 | 1017.4 |
| 20260505050503 | 54 | 268 | 2.0 | 6.0 | 0.00 | 0.00 | 0.00 | 73 | 1017.5 |
| 20260505041504 | 50 | 256 | 1.0 | 7.0 | 0.00 | 0.00 | 0.00 | 78 | 1017.2 |
| 20260505041004 | 49 | 248 | 1.0 | 7.0 | 0.00 | 0.00 | 0.00 | 78 | 1017.1 |
| 20260505040503 | 48 | 268 | 1.0 | 4.0 | 0.00 | 0.00 | 0.00 | 78 | 1017.2 |
| 20260505035503 | 47 | 290 | 1.0 | 4.0 | 0.00 | 0.00 | 0.00 | 77 | 1017.2 |
| 20260505035003 | 46 | 280 | 1.0 | 4.0 | 0.00 | 0.00 | 0.00 | 76 | 1017.2 |
| 20260505034504 | 46 | 278 | 1.0 | 4.0 | 0.00 | 0.00 | 0.00 | 76 | 1017.2 |
| 20260505034003 | 46 | 267 | 1.0 | 4.0 | 0.00 | 0.00 | 0.00 | 75 | 1017.0 |
| 20260505033004 | 46 | 247 | 1.0 | 4.0 | 0.00 | 0.00 | 0.00 | 74 | 1017.1 |
| 20260505032503 | 45 | 252 | 1.0 | 4.0 | 0.00 | 0.00 | 0.00 | 73 | 1017.1 |
| 20260505032003 | 45 | 292 | 1.0 | 4.0 | 0.00 | 0.00 | 0.00 | 72 | 1017.2 |
| 20260505031504 | 45 | 275 | 1.0 | 4.0 | 0.00 | 0.00 | 0.00 | 71 | 1017.1 |
| 20260505030503 | 45 | 231 | 0.0 | 2.0 | 0.00 | 0.00 | 0.00 | 69 | 1017.1 |
| 20260505025003 | 45 | 181 | 0.0 | 1.0 | 0.00 | 0.00 | 0.00 | 66 | 1017.0 |
| 20260505024504 | 45 | 181 | 0.0 | 2.0 | 0.00 | 0.00 | 0.00 | 66 | 1017.0 |
| 20260505024003 | 46 | 147 | 0.0 | 2.0 | 0.00 | 0.00 | 0.00 | 66 | 1017.1 |
| 20260505023503 | 46 | 135 | 0.0 | 2.0 | 0.00 | 0.00 | 0.00 | 66 | 1017.1 |
| 20260505023004 | 46 | 314 | 0.0 | 1.0 | 0.00 | 0.00 | 0.00 | 65 | 1017.3 |
| 20260505022504 | 46 | 271 | 0.0 | 4.0 | 0.00 | 0.00 | 0.00 | 66 | 1017.2 |
| 20260505022003 | 47 | 245 | 0.0 | 4.0 | 0.00 | 0.00 | 0.00 | 66 | 1017.1 |
| 20260505021504 | 46 | 226 | 1.0 | 3.0 | 0.00 | 0.00 | 0.00 | 66 | 1017.1 |
| 20260505021003 | 46 | 232 | 1.0 | 3.0 | 0.00 | 0.00 | 0.00 | 66 | 1017.1 |
| 20260505020503 | 46 | 242 | 1.0 | 3.0 | 0.00 | 0.00 | 0.00 | 66 | 1017.1 |
| 20260505020004 | 45 | 251 | 0.0 | 3.0 | 0.00 | 0.00 | 0.00 | 65 | 1017.4 |
| 20260505015503 | 45 | 252 | 0.0 | 2.0 | 0.00 | 0.00 | 0.00 | 65 | 1017.3 |
| 20260505015003 | 45 | 246 | 0.0 | 2.0 | 0.00 | 0.00 | 0.00 | 65 | 1017.3 |
| 20260505014504 | 45 | 244 | 0.0 | 2.0 | 0.00 | 0.00 | 0.00 | 64 | 1017.3 |
| 20260505014003 | 45 | 231 | 0.0 | 2.0 | 0.00 | 0.00 | 0.00 | 64 | 1017.3 |
| 20260505013503 | 45 | 222 | 0.0 | 2.0 | 0.00 | 0.00 | 0.00 | 63 | 1017.4 |
| 20260505013004 | 46 | 222 | 0.0 | 3.0 | 0.00 | 0.00 | 0.00 | 63 | 1017.4 |
| 20260505012503 | 46 | 211 | 0.0 | 3.0 | 0.00 | 0.00 | 0.00 | 63 | 1017.5 |
| 20260505012004 | 46 | 184 | 0.0 | 3.0 | 0.00 | 0.00 | 0.00 | 63 | 1017.5 |
| 20260505011504 | 46 | 187 | 1.0 | 4.0 | 0.00 | 0.00 | 0.00 | 62 | 1017.4 |
| 20260505011004 | 46 | 208 | 2.0 | 4.0 | 0.00 | 0.00 | 0.00 | 62 | 1017.6 |
| 20260505010504 | 46 | 220 | 2.0 | 4.0 | 0.00 | 0.00 | 0.00 | 62 | 1017.2 |
| 20260505010004 | 46 | 225 | 1.0 | 4.0 | 0.00 | 0.00 | 0.00 | 62 | 1017.4 |
| 20260505005504 | 46 | 225 | 0.0 | 3.0 | 0.00 | 0.00 | 0.00 | 62 | 1017.3 |
| 20260505005004 | 47 | 225 | 0.0 | 3.0 | 0.00 | 0.00 | 0.00 | 61 | 1017.4 |
| 20260505004503 | 47 | 232 | 1.0 | 5.0 | 0.00 | 0.00 | 0.00 | 61 | 1017.4 |
| 20260505004003 | 47 | 232 | 1.0 | 5.0 | 0.00 | 0.00 | 0.00 | 61 | 1017.6 |
| 20260505003503 | 47 | 255 | 2.0 | 6.0 | 0.00 | 0.00 | 0.00 | 60 | 1017.3 |
| 20260505003003 | 47 | 261 | 1.0 | 6.0 | 0.00 | 0.00 | 0.00 | 60 | 1017.4 |
| 20260505002503 | 47 | 228 | 1.0 | 4.0 | 0.00 | 0.00 | 0.00 | 60 | 1017.4 |
| 20260505002003 | 47 | 229 | 1.0 | 4.0 | 0.00 | 0.00 | 0.00 | 60 | 1017.6 |
| 20260505001504 | 47 | 229 | 1.0 | 4.0 | 0.00 | 0.00 | 0.00 | 59 | 1017.4 |
| 20260505001003 | 48 | 225 | 2.0 | 4.0 | 0.00 | 0.00 | 0.00 | 59 | 1017.6 |
| 20260505000503 | 48 | 227 | 2.0 | 5.0 | 0.00 | 0.00 | 0.00 | 59 | 1017.7 |
| 20260505000004 | 48 | 231 | 2.0 | 5.0 | 0.00 | 0.00 | 0.00 | 59 | 1017.6 |
| 20260504235503 | 48 | 250 | 2.0 | 5.0 | 0.00 | 0.00 | 0.00 | 59 | 1017.4 |
| 20260504235003 | 48 | 266 | 2.0 | 5.0 | 0.00 | 0.00 | 0.00 | 59 | 1017.5 |
| 20260504234504 | 48 | 263 | 2.0 | 7.0 | 0.00 | 0.00 | 0.00 | 59 | 1017.4 |
| 20260504234004 | 48 | 268 | 1.0 | 7.0 | 0.00 | 0.00 | 0.00 | 59 | 1017.4 |
| 20260504233504 | 47 | 258 | 2.0 | 5.0 | 0.00 | 0.00 | 0.00 | 60 | 1017.5 |
| 20260504233004 | 47 | 249 | 2.0 | 6.0 | 0.00 | 0.00 | 0.00 | 60 | 1017.6 |
| 20260504232503 | 47 | 263 | 1.0 | 6.0 | 0.00 | 0.00 | 0.00 | 60 | 1017.6 |
| 20260504232003 | 47 | 277 | 0.0 | 3.0 | 0.00 | 0.00 | 0.00 | 59 | 1017.8 |
| 20260504231003 | 48 | 203 | 0.0 | 3.0 | 0.00 | 0.00 | 0.00 | 58 | 1017.8 |
| 20260504230503 | 48 | 184 | 0.0 | 2.0 | 0.00 | 0.00 | 0.00 | 58 | 1017.9 |
| 20260504230003 | 48 | 203 | 0.0 | 2.0 | 0.00 | 0.00 | 0.00 | 57 | 1017.8 |
| 20260504225503 | 49 | 230 | 0.0 | 3.0 | 0.00 | 0.00 | 0.00 | 56 | 1018.1 |
| 20260504225003 | 49 | 246 | 0.0 | 3.0 | 0.00 | 0.00 | 0.00 | 56 | 1017.8 |
| 20260504224504 | 49 | 270 | 0.0 | 4.0 | 0.00 | 0.00 | 0.00 | 55 | 1017.9 |
| 20260504224004 | 49 | 276 | 1.0 | 4.0 | 0.00 | 0.00 | 0.00 | 55 | 1017.7 |
| 20260504223503 | 50 | 269 | 1.0 | 4.0 | 0.00 | 0.00 | 0.00 | 55 | 1017.8 |
| 20260504222003 | 50 | 269 | 2.0 | 7.0 | 0.00 | 0.00 | 0.00 | 55 | 1018.1 |
| 20260504221504 | 49 | 264 | 2.0 | 7.0 | 0.00 | 0.00 | 0.00 | 56 | 1018.1 |
| 20260504221003 | 49 | 260 | 2.0 | 7.0 | 0.00 | 0.00 | 0.00 | 56 | 1018.0 |
| 20260504215503 | 48 | 276 | 1.0 | 4.0 | 0.00 | 0.00 | 0.00 | 56 | 1018.1 |
| 20260504214504 | 49 | 259 | 1.0 | 4.0 | 0.00 | 0.00 | 0.00 | 56 | 1018.1 |
| 20260504214003 | 49 | 240 | 1.0 | 4.0 | 0.00 | 0.00 | 0.00 | 56 | 1018.1 |
| 20260504213503 | 49 | 231 | 2.0 | 5.0 | 0.00 | 0.00 | 0.00 | 55 | 1018.2 |
| 20260504213004 | 49 | 230 | 2.0 | 5.0 | 0.00 | 0.00 | 0.00 | 55 | 1018.1 |
| 20260504212503 | 49 | 237 | 1.0 | 5.0 | 0.00 | 0.00 | 0.00 | 55 | 1018.0 |
| 20260504212003 | 50 | 257 | 2.0 | 5.0 | 0.00 | 0.00 | 0.00 | 54 | 1018.1 |
| 20260504211503 | 50 | 266 | 2.0 | 5.0 | 0.00 | 0.00 | 0.00 | 54 | 1018.1 |
| 20260504211002 | 50 | 255 | 2.0 | 5.0 | 0.00 | 0.00 | 0.00 | 54 | 1018.4 |
| 20260504210504 | 50 | 237 | 2.0 | 4.0 | 0.00 | 0.00 | 0.00 | 53 | 1018.4 |
| 20260504210004 | 50 | 228 | 1.0 | 4.0 | 0.00 | 0.00 | 0.00 | 52 | 1018.2 |
| 20260504204504 | 51 | 235 | 1.0 | 4.0 | 0.00 | 0.00 | 0.00 | 50 | 1018.5 |
| 20260504204003 | 51 | 238 | 1.0 | 4.0 | 0.00 | 0.00 | 0.00 | 51 | 1018.3 |
| 20260504203503 | 51 | 230 | 1.0 | 5.0 | 0.00 | 0.00 | 0.00 | 51 | 1018.1 |
| 20260504203004 | 51 | 225 | 2.0 | 5.0 | 0.00 | 0.00 | 0.00 | 51 | 1018.4 |
| 20260504202503 | 51 | 225 | 2.0 | 5.0 | 0.00 | 0.00 | 0.00 | 51 | 1018.4 |
| 20260504202003 | 51 | 225 | 1.0 | 5.0 | 0.00 | 0.00 | 0.00 | 51 | 1018.3 |
| 20260504201504 | 51 | 229 | 1.0 | 5.0 | 0.00 | 0.00 | 0.00 | 51 | 1018.5 |
| 20260504201003 | 51 | 231 | 1.0 | 5.0 | 0.00 | 0.00 | 0.00 | 51 | 1018.5 |
| 20260504200503 | 51 | 230 | 1.0 | 5.0 | 0.00 | 0.00 | 0.00 | 51 | 1018.4 |
| 20260504200004 | 51 | 230 | 0.0 | 4.0 | 0.00 | 0.00 | 0.00 | 50 | 1018.4 |
| 20260504195503 | 51 | 254 | 1.0 | 4.0 | 0.00 | 0.00 | 0.00 | 50 | 1018.2 |
| 20260504195003 | 51 | 276 | 1.0 | 4.0 | 0.00 | 0.00 | 0.00 | 50 | 1018.1 |
| 20260504194504 | 52 | 244 | 2.0 | 4.0 | 0.00 | 0.00 | 0.00 | 50 | 1018.2 |
| 20260504194004 | 52 | 230 | 2.0 | 6.0 | 0.00 | 0.00 | 0.00 | 49 | 1018.1 |
| 20260504193503 | 52 | 233 | 2.0 | 6.0 | 0.00 | 0.00 | 0.00 | 49 | 1018.3 |
| 20260504193004 | 52 | 230 | 1.0 | 4.0 | 0.00 | 0.00 | 0.00 | 50 | 1018.3 |
| 20260504192003 | 52 | 216 | 0.0 | 4.0 | 0.00 | 0.00 | 0.00 | 49 | 1018.3 |
| 20260504191505 | 52 | 189 | 0.0 | 3.0 | 0.00 | 0.00 | 0.00 | 48 | 1018.1 |
| 20260504191003 | 53 | 178 | 0.0 | 3.0 | 0.00 | 0.00 | 0.00 | 48 | 1018.3 |
| 20260504190504 | 53 | 150 | 1.0 | 4.0 | 0.00 | 0.00 | 0.00 | 48 | 1018.2 |
| 20260504190004 | 53 | 152 | 2.0 | 5.0 | 0.00 | 0.00 | 0.00 | 48 | 1018.3 |
| 20260504185503 | 53 | 207 | 1.0 | 5.0 | 0.00 | 0.00 | 0.00 | 48 | 1018.2 |
| 20260504185003 | 53 | 252 | 0.0 | 4.0 | 0.00 | 0.00 | 0.00 | 47 | 1018.1 |
| 20260504184503 | 53 | 225 | 0.0 | 2.0 | 0.00 | 0.00 | 0.00 | 48 | 1018.1 |
| 20260504184003 | 54 | 221 | 0.0 | 3.0 | 0.00 | 0.00 | 0.00 | 47 | 1017.9 |
| 20260504183503 | 54 | 166 | 1.0 | 4.0 | 0.00 | 0.00 | 0.00 | 46 | 1018.0 |
| 20260504183003 | 55 | 151 | 1.0 | 4.0 | 0.00 | 0.00 | 0.00 | 46 | 1018.2 |
| 20260504182503 | 55 | 178 | 2.0 | 5.0 | 0.00 | 0.00 | 0.00 | 46 | 1017.9 |
| 20260504182003 | 56 | 207 | 3.0 | 5.0 | 0.00 | 0.00 | 0.00 | 45 | 1017.8 |
| 20260504181503 | 56 | 225 | 2.0 | 6.0 | 0.00 | 0.00 | 0.00 | 43 | 1017.7 |
| 20260504181005 | 57 | 237 | 2.0 | 6.0 | 0.00 | 0.00 | 0.00 | 42 | 1017.7 |
| 20260504180505 | 58 | 233 | 2.0 | 5.0 | 0.00 | 0.00 | 0.00 | 40 | 1017.8 |
| 20260504180006 | 58 | 225 | 2.0 | 4.0 | 0.00 | 0.00 | 0.00 | 39 | 1017.8 |
| 20260504175509 | 59 | 225 | 2.0 | 4.0 | 0.00 | 0.00 | 0.00 | 38 | 1017.9 |
| 20260504175003 | 59 | 225 | 2.0 | 4.0 | 0.00 | 0.00 | 0.00 | 36 | 1017.8 |
| 20260504174504 | 59 | 228 | 1.0 | 4.0 | 0.00 | 0.00 | 0.00 | 34 | 1018.0 |
| 20260504174005 | 59 | 236 | 0.0 | 4.0 | 0.00 | 0.00 | 0.00 | 31 | 1017.8 |
| 20260504173505 | 60 | 0 | 0.0 | 0.0 | 0.00 | 0.00 | 0.00 | 31 | 1017.9 |
| 20260504172506 | 61 | 0 | 0.0 | 0.0 | 0.00 | 0.00 | 0.00 | 30 | 1017.9 |
| 20260504172003 | 61 | 0 | 0.0 | 0.0 | 0.00 | 0.00 | 0.00 | 30 | 1017.8 |
| 20260504171504 | 61 | 314 | 0.0 | 2.0 | 0.00 | 0.00 | 0.00 | 29 | 1017.7 |
| 20260504171003 | 62 | 314 | 0.0 | 3.0 | 0.00 | 0.00 | 0.00 | 28 | 1017.8 |
| 20260504170503 | 62 | 314 | 1.0 | 4.0 | 0.00 | 0.00 | 0.00 | 27 | 1017.8 |
| 20260504151003 | 66 | 8 | 5.0 | 10.0 | 0.00 | 0.00 | 0.00 | 24 | 1018.0 |
| 20260504150503 | 66 | 22 | 5.0 | 9.0 | 0.00 | 0.00 | 0.00 | 24 | 1017.8 |
| 20260504141002 | 67 | 349 | 7.0 | 15.0 | 0.00 | 0.00 | 0.00 | 19 | 1018.2 |
| 20260504130503 | 67 | 330 | 8.0 | 18.0 | 0.00 | 0.00 | 0.00 | 19 | 1018.2 |
| 20260504110503 | 66 | 310 | 5.0 | 12.0 | 0.00 | 0.00 | 0.00 | 28 | 1019.4 |
| 20260504100502 | 65 | 313 | 7.0 | 19.0 | 0.00 | 0.00 | 0.00 | 29 | 1019.8 |
| 20260504082002 | 63 | 41 | 3.0 | 11.0 | 0.00 | 0.00 | 0.00 | 40 | 1020.1 |
| 20260504081503 | 62 | 31 | 5.0 | 13.0 | 0.00 | 0.00 | 0.00 | 41 | 1020.0 |
| 20260504081003 | 62 | 4 | 6.0 | 14.0 | 0.00 | 0.00 | 0.00 | 42 | 1020.0 |